Regional Weather Roundup
Issued by NWS

Home | Current Version | Previous Version | Text Only | Print | Product List | Glossary On
Versions: 1 2 3 4 5 6 7 8 9 10 11 12 13 14 15 16 17 18 19 20 21 22 23 24 25 26 27 28 29 30 31 32 33 34 35 36 37 38 39 40 41 42 43 44 45 46 47 48 49 50
000
ASUS42 KKEY 250710
RWRKEY

FLORIDA REGIONAL WEATHER ROUNDUP FOR THE FLORIDA KEYS
NATIONAL WEATHER SERVICE KEY WEST FLORIDA
300 AM EDT THU MAY 25 2017

...SOUTH FLORIDA AND THE KEYS...

CITY           SKY/WX    TMP DP  RH WIND       PRES   REMARKS
FORT MYERS     CLOUDY    79  72  79 SW10      29.80F
SW REGIONAL AP MOCLDY    78  70  76 W13       29.82F
NAPLES         PTCLDY    83  69  62 SW14      29.82F
MIAMI          CLOUDY    78  73  84 S8        29.85S
WEST KENDALL   PTCLDY    78  74  87 S8        29.84F
HOMESTEAD      PTCLDY    76  76  99 S6        29.84F
MARATHON       CLOUDY    82  78  88 S8        29.85F HX  91
BOCA CHICA NAS MOCLDY    80  78  94 S10       29.83F
KEY WEST INTL  MOCLDY    81  76  84 S10       29.84F

...INTERNATIONAL WEATHER...

CITY           SKY/WX    TMP DP  RH WIND       PRES   REMARKS
NASSAU BAHAMAS MOCLDY    84  73  70 S6        29.92F HX  91
CANCUN MEXICO  CLOUDY    70  70 100 W6        29.85S
COZUMEL MEXICO   N/A    N/A N/A N/A MISG        N/A

ADJACENT COASTAL WATERS...

STATION/POSITION TIME  SKY/WX   TEMP    WIND        PRES    WAVE
                                AIR SEA DIR/SP/G            HT/PER
                 (UTC)          (F)     (DEG/KT/KT) (MB)    (FT/S)
PULASKI SHOAL LI 0700            81     210/ 10/ 12 1010.6R
SAND KEY         0650            80     190/ 11/ 12 1010.9F
LONG KEY         0600            80 84  210/ 13/ 14 1011.7F
MOLASSES REEF    0600            80 81  260/ 12/ 14 1012.1F
FOWEY ROCKS      0600            80 81  210/ 22/ 23 1011.9R
Buoy 42097       0700                                 N/A     7/ 8

$$



USA.gov is the U.S. government's official web portal to all federal, state and local government web resources and services.